Date String (YYYY-MM-DD hh:mm:ss) UTC,Instrument flags,Ambient pressure (hPa),Sample flow (lpm),Bypass flow (lpm),Sample temperature (°C),Ambient temperature (°C),ASC tube jacket temperature (°C),LED temperature (°C),Box temperature (°C),Sample RH (%),Span deviation,Mass concentration (μg/m³),Mass concentration (μg/m³),Mass concentration (μg/m³)
DateTimeUTC,F1_M11,P_M11,Q1_M11,Q2_M11,T1_M11,T2_M11,T3_M11,T4_M11,T5_M11,U1_M11,ZSPAN_M11,X0_M11,X2_M11,X1_M11
2023-01-10 03:00:00,,0820.1,5.00,0.00,23.0,21.1,00.0,32.1,24.7,12.1,0000.0,0007.98,0003.98,0003.50
2023-01-10 03:01:00,,0820.1,5.02,0.00,23.0,21.3,00.0,32.1,24.7,12.0,0000.0,0007.96,0003.95,0003.46
2023-01-10 03:02:00,,0820.1,5.00,0.00,23.0,21.4,00.0,32.1,24.8,12.0,0000.0,0007.72,0003.79,0003.34
2023-01-10 03:03:00,,0820.1,5.00,0.00,23.0,21.5,00.0,32.0,24.8,12.0,0000.0,0007.47,0003.59,0003.17
2023-01-10 03:04:00,,0820.0,5.00,0.00,23.0,21.6,00.0,32.0,24.9,11.9,0000.0,0007.01,0003.37,0002.85
2023-01-10 03:05:00,,0820.0,5.00,0.00,23.1,21.7,00.0,32.0,24.9,11.8,0000.0,0006.47,0003.19,0002.56
2023-01-10 03:06:00,,0820.0,5.00,0.00,23.1,21.8,00.0,32.0,24.9,11.8,0000.0,0005.45,0002.92,0002.29
2023-01-10 03:07:00,,0820.0,5.02,0.00,23.1,21.8,00.0,32.0,24.9,11.8,0000.0,0004.91,0002.62,0002.07
2023-01-10 03:08:00,,0820.0,5.02,0.00,23.1,21.9,00.0,32.0,25.0,11.7,0000.0,0004.56,0002.34,0001.86
2023-01-10 03:09:00,,0820.0,5.00,0.00,23.1,21.9,00.0,32.0,25.0,11.8,0000.0,0003.81,0002.15,0001.71
2023-01-10 03:10:00,,0820.1,5.00,0.00,23.2,21.9,00.0,32.0,25.0,11.8,0000.0,0003.47,0002.01,0001.60
2023-01-10 03:11:00,,0820.1,4.99,0.00,23.2,22.0,00.0,32.0,25.0,11.8,0000.0,0003.49,0002.01,0001.56
2023-01-10 03:12:00,,0820.2,4.99,0.00,23.2,22.0,00.0,32.0,25.0,11.8,0000.0,0003.45,0001.99,0001.55
2023-01-10 03:13:00,,0820.2,4.98,0.00,23.2,22.0,00.0,32.0,25.0,11.9,0000.0,0003.40,0001.97,0001.54
2023-01-10 03:14:00,,0820.3,5.00,0.00,23.2,22.0,00.0,32.0,25.0,12.0,0000.0,0003.35,0001.91,0001.51
2023-01-10 03:15:00,,0820.3,5.01,0.00,23.2,21.8,00.0,32.0,24.9,12.8,0000.0,0004.70,0002.08,0001.65
2023-01-10 03:16:00,,0820.3,5.00,0.00,23.2,21.7,00.0,32.0,24.9,12.8,0000.0,0005.06,0002.32,0001.84
2023-01-10 03:17:00,,0820.3,5.00,0.00,23.1,21.7,00.0,32.0,24.9,12.5,0000.0,0005.28,0002.49,0001.98
2023-01-10 03:18:00,,0820.2,5.00,0.00,23.1,21.6,00.0,32.0,24.8,12.4,0000.0,0005.49,0002.66,0002.13
2023-01-10 03:19:00,,0820.2,5.00,0.00,23.1,21.4,00.0,32.0,24.7,12.3,0000.0,0005.62,0002.82,0002.28
2023-01-10 03:20:00,,0820.2,4.99,0.00,23.0,21.3,00.0,32.0,24.7,12.4,0000.0,0005.83,0002.99,0002.41
2023-01-10 03:21:00,,0820.1,5.00,0.00,23.0,21.3,00.0,32.0,24.7,12.4,0000.0,0006.53,0003.16,0002.55
2023-01-10 03:22:00,,0820.0,5.01,0.00,23.0,21.3,00.0,32.0,24.6,12.3,0000.0,0007.46,0003.24,0002.67
2023-01-10 03:23:00,,0820.0,5.02,0.00,23.0,21.4,00.0,31.9,24.6,12.3,0000.0,0007.65,0003.29,0002.78
2023-01-10 03:24:00,,0820.0,5.00,0.00,23.0,21.5,00.0,31.9,24.7,12.2,0000.0,0007.86,0003.36,0002.87
2023-01-10 03:25:00,,0820.0,4.99,0.00,23.0,21.5,00.0,31.9,24.8,12.1,0000.0,0008.25,0003.42,0002.95
2023-01-10 03:26:00,,0820.0,4.98,0.00,23.0,21.5,00.0,31.9,24.8,12.1,0000.0,0007.82,0003.41,0002.93
2023-01-10 03:27:00,,0820.1,5.01,0.00,23.0,21.5,00.0,31.9,24.8,12.0,0000.0,0008.02,0003.36,0002.88
2023-01-10 03:28:00,,0820.2,5.00,0.00,23.0,21.6,00.0,31.9,24.8,12.0,0000.0,0008.13,0003.35,0002.87
2023-01-10 03:29:00,,0820.2,5.01,0.00,23.0,21.7,00.0,31.9,24.8,12.1,0000.0,0008.22,0003.32,0002.82
2023-01-10 03:30:00,,0820.2,5.00,0.00,23.0,21.7,00.0,31.9,24.8,12.0,0000.0,0008.65,0003.33,0002.80
2023-01-10 03:31:00,,0820.1,5.00,0.00,23.0,21.8,00.0,31.9,24.9,12.0,0000.0,0009.54,0003.31,0002.79
2023-01-10 03:32:00,,0820.0,5.00,0.00,23.0,21.8,00.0,31.9,24.9,12.0,0000.0,0009.70,0003.31,0002.78
2023-01-10 03:33:00,,0820.1,5.01,0.00,23.1,21.9,00.0,31.9,24.9,12.0,0000.0,0009.26,0003.30,0002.79
2023-01-10 03:34:00,,0820.0,4.98,0.00,23.1,21.9,00.0,31.9,24.9,12.0,0000.0,0009.09,0003.29,0002.81
2023-01-10 03:35:00,,0820.1,5.01,0.00,23.1,21.9,00.0,31.9,24.9,12.1,0000.0,0008.92,0003.29,0002.80
2023-01-10 03:36:00,,0820.1,5.00,0.00,23.1,21.9,00.0,31.9,24.9,12.0,0000.0,0008.77,0003.32,0002.83
2023-01-10 03:37:00,,0820.2,4.99,0.00,23.1,21.9,00.0,31.9,25.0,12.1,0000.0,0008.59,0003.35,0002.86
2023-01-10 03:38:00,,0820.1,5.00,0.00,23.1,21.9,00.0,31.9,24.9,12.0,0000.0,0008.36,0003.39,0002.89
2023-01-10 03:39:00,,0820.1,4.99,0.00,23.2,21.9,00.0,32.0,24.9,12.0,0000.0,0008.29,0003.41,0002.91
2023-01-10 03:40:00,,0820.1,5.01,0.00,23.2,21.9,00.0,32.0,24.9,12.0,0000.0,0008.24,0003.43,0002.93
2023-01-10 03:41:00,,0820.1,4.99,0.00,23.2,21.9,00.0,32.0,24.9,12.0,0000.0,0008.17,0003.45,0002.95
2023-01-10 03:42:00,,0820.0,5.00,0.00,23.2,21.9,00.0,32.0,24.9,12.0,0000.0,0007.11,0003.47,0002.97
2023-01-10 03:43:00,,0820.0,5.01,0.00,23.2,21.9,00.0,32.0,24.9,12.1,0000.0,0006.05,0003.45,0002.96
2023-01-10 03:44:00,,0819.9,5.00,0.00,23.2,21.9,00.0,32.0,24.9,12.5,0000.0,0005.89,0003.39,0002.88
2023-01-10 03:45:00,,0819.9,5.00,0.00,23.1,21.8,00.0,32.0,24.8,12.2,0000.0,0006.52,0003.38,0002.82
2023-01-10 03:46:00,,0819.9,5.00,0.00,23.1,21.8,00.0,32.0,24.8,12.0,0000.0,0006.58,0003.35,0002.75
2023-01-10 03:47:00,,0819.9,5.00,0.00,23.1,21.8,00.0,32.0,24.9,12.0,0000.0,0007.12,0003.29,0002.69
2023-01-10 03:48:00,,0819.9,5.00,0.00,23.1,21.8,00.0,32.0,24.9,12.0,0000.0,0007.43,0003.24,0002.64
2023-01-10 03:49:00,,0820.0,4.99,0.00,23.1,21.8,00.0,32.0,24.9,12.0,0000.0,0008.14,0003.20,0002.60
2023-01-10 03:50:00,,0820.0,4.98,0.00,23.1,21.8,00.0,32.0,24.9,11.9,0000.0,0009.25,0003.19,0002.57
2023-01-10 03:51:00,,0820.0,4.99,0.00,23.1,21.8,00.0,32.0,24.9,11.9,0000.0,0009.49,0003.16,0002.53
2023-01-10 03:52:00,,0820.0,5.01,0.00,23.1,21.8,00.0,32.0,24.9,11.9,0000.0,0009.39,0003.11,0002.49
2023-01-10 03:53:00,,0819.9,5.01,0.00,23.2,21.9,00.0,32.0,24.9,11.9,0000.0,0009.35,0003.07,0002.47
2023-01-10 03:54:00,,0819.9,5.00,0.00,23.2,21.9,00.0,32.0,25.0,12.0,0000.0,0009.92,0003.07,0002.46
2023-01-10 03:55:00,,0819.9,5.01,0.00,23.2,21.9,00.0,32.0,25.0,12.1,0000.0,0009.97,0003.08,0002.48
2023-01-10 03:56:00,,0819.9,5.00,0.00,23.2,21.9,00.0,32.0,25.0,12.0,0000.0,0009.66,0003.07,0002.52
2023-01-10 03:57:00,,0819.9,4.99,0.00,23.2,21.9,00.0,32.0,25.0,11.9,0000.0,0009.66,0003.14,0002.58
2023-01-10 03:58:00,,0819.9,5.01,0.00,23.2,21.9,00.0,32.0,25.0,11.9,0000.0,0009.33,0003.16,0002.61
2023-01-10 03:59:00,,0819.9,5.00,0.00,23.2,22.0,00.0,32.0,25.0,11.9,0000.0,0009.27,0003.18,0002.63
